Theta_e
304 305 304 304 304 304 303 303 302 302 301 301 299 298 297 296 296 293 289 288 286 279 278 279 280 272 273 273 273 272 271 268 264 262 259 258 260 264 268 270 270 268 266 267 267 260 259 272 272 268 269 270 269 267
304 304 304 304 303 303 303 303 303 302 302 301 300 299 297 296 296 295 287 288 290 284 278 281 282 283 281 280 278 276 273 270 271 265 260 261 259 262 264 261 273 268 270 269 270 269 272 271 269 271 271 269 270 271
300 301 300 301 301 301 302 302 303 303 302 301 301 299 298 296 296 294 289 287 287 280 277 273 274 278 283 282 285 277 272 274 274 277 271 268 262 271 263 265 267 272 273 272 271 271 270 270 272 271 271 272 272 272
297 297 298 298 298 298 300 299 301 302 302 301 301 299 298 296 296 295 288 287 285 279 270 271 280 277 282 287 286 285 282 280 279 277 273 268 264 275 271 273 270 270 270 269 271 271 272 272 271 271 272 272 271 271
294 294 295 294 296 296 297 297 298 299 301 301 301 299 297 296 295 292 291 289 288 281 268 271 274 274 278 283 283 283 281 279 274 270 268 266 273 276 271 269 268 270 268 267 267 271 270 271 271 271 270 270 270 269
292 292 293 294 294 294 295 296 296 298 297 298 301 299 297 295 294 287 280 284 289 287 278 269 271 266 263 271 277 277 277 276 275 271 270 273 277 278 266 261 271 271 271 271 269 270 270 272 272 270 269 269 270 269
292 292 292 293 292 293 293 294 295 295 297 297 298 298 296 295 289 283 280 283 291 287 275 271 266 269 264 265 269 276 276 277 275 270 267 271 273 276 266 261 270 271 270 269 269 269 269 269 268 267 266 266 264 262
291 291 291 291 292 292 293 293 293 294 295 296 297 297 295 294 292 287 290 292 290 282 278 268 267 266 267 263 263 262 272 267 266 263 265 265 268 267 262 268 270 269 268 266 267 266 268 267 266 265 264 263 262 263
290 290 290 290 291 291 292 292 292 293 294 296 296 293 289 285 282 283 292 293 288 281 271 265 262 262 267 261 260 260 262 266 260 259 259 262 257 263 268 268 269 267 267 268 265 262 262 263 262 260 258 258 259 261
288 289 289 289 289 290 291 291 292 292 293 294 287 282 278 280 291 291 285 279 279 278 276 267 264 265 267 261 256 257 255 255 259 257 256 255 260 264 266 266 269 269 267 265 261 261 257 257 258 257 258 256 256 255
287 288 288 288 288 289 290 291 292 292 293 283 280 278 283 290 282 277 272 271 268 266 268 265 266 264 265 263 260 262 258 251 255 258 257 251 257 265 262 260 259 263 263 260 257 256 255 257 258 255 254 252 251 250
286 287 287 288 288 289 290 291 292 288 284 283 282 284 282 278 274 271 265 262 264 267 264 266 264 266 263 265 261 256 256 255 256 249 255 254 263 261 257 258 255 252 253 254 251 255 254 255 252 252 253 252 252 251
286 286 287 287 289 289 290 290 292 292 289 284 280 275 274 270 268 263 260 262 262 265 261 263 262 265 263 263 256 255 256 257 252 252 256 260 262 259 255 252 252 245 245 248 249 246 247 248 246 247 252 251 248 249
285 286 287 288 289 290 290 290 291 289 282 276 273 267 269 264 263 263 263 266 267 265 262 262 259 260 257 258 253 256 252 251 253 253 257 259 259 256 251 249 250 253 249 249 250 248 248 248 250 247 249 249 247 251
286 287 287 288 290 289 289 290 291 286 279 274 272 268 266 264 259 256 253 260 262 264 265 264 261 264 255 257 254 253 254 253 257 259 260 261 257 251 251 251 253 249 250 249 247 249 250 247 247 251 250 246 244 247
286 287 285 287 287 288 288 287 286 282 277 273 270 266 259 263 262 257 256 262 263 266 265 265 256 258 257 257 257 255 255 255 260 260 264 255 254 251 252 253 254 249 249 250 247 247 247 247 250 252 248 250 248 247
285 281 286 286 286 287 287 283 280 277 274 271 268 258 265 267 269 264 263 266 267 269 266 262 260 261 260 256 256 254 257 261 263 265 264 255 256 255 252 252 252 250 249 248 247 247 248 246 242 246 256 253 248 250
279 282 285 286 285 283 276 277 275 273 270 260 263 260 264 267 265 261 259 264 269 265 264 265 262 258 258 256 256 260 260 259 258 263 264 259 253 249 249 253 249 249 250 250 249 249 246 246 249 254 250 250 249 251
280 281 284 285 283 280 274 273 272 268 259 257 260 265 265 264 263 263 262 264 263 265 266 260 260 260 259 257 257 256 254 258 263 263 261 259 256 250 249 248 250 249 251 250 251 252 250 249 253 252 251 247 250 253
283 283 283 284 283 275 270 270 270 267 263 261 263 264 263 263 263 263 264 266 269 268 264 261 263 260 260 259 259 261 263 262 258 260 263 261 256 251 250 250 254 251 250 248 247 249 248 251 249 247 245 247 247 254
279 276 281 279 272 271 268 266 266 265 263 262 263 265 263 265 264 264 264 263 265 262 263 262 257 254 251 252 253 254 256 256 257 261 262 265 257 255 252 248 246 247 251 250 251 251 249 249 250 247 245 248 251 253
270 281 277 276 269 267 265 265 265 263 262 261 264 265 264 263 263 263 261 262 262 262 259 257 255 255 255 255 254 251 253 253 257 260 262 261 261 258 256 254 253 252 249 250 249 250 249 248 246 246 247 254 256 257
280 279 274 271 266 265 261 265 263 263 262 262 263 263 260 260 259 260 260 257 257 256 252 251 250 248 250 250 249 250 251 255 260 261 259 257 255 251 252 250 246 251 252 250 245 245 247 249 249 251 254 256 258 258
277 269 266 265 265 259 262 260 262 262 262 262 262 258 258 258 259 259 257 254 253 252 252 251 247 251 252 251 251 250 251 253 259 258 257 255 257 254 247 245 243 243 246 245 244 245 246 250 254 256 258 258 259 259
268 262 264 261 262 260 258 256 256 261 258 258 260 258 257 256 257 255 256 253 253 251 249 250 251 252 252 249 249 251 251 255 258 261 256 253 252 248 249 246 245 245 242 248 250 248 253 255 257 258 258 258 258 258
262 258 260 255 255 257 256 256 256 257 259 257 254 254 253 254 255 256 254 252 247 245 245 246 248 251 251 248 249 254 254 254 254 257 253 248 245 250 250 252 250 252 243 244 246 250 253 255 256 256 257 258 258 258
254 251 250 250 254 255 256 257 259 262 261 260 255 253 254 252 252 254 251 246 245 244 244 245 248 249 249 252 254 253 252 250 250 249 244 242 242 242 248 251 252 252 246 246 250 251 252 253 255 256 257 258 259 258
252 251 256 255 256 257 261 261 257 257 258 255 257 251 251 252 255 251 248 247 243 245 247 246 248 250 251 253 253 254 253 251 246 245 244 244 242 242 243 244 245 255 252 252 253 254 254 255 256 257 257 258 259 259
254 254 259 259 258 254 251 254 254 253 252 249 252 250 250 248 247 243 245 245 245 246 250 251 252 253 254 253 254 252 248 246 253 254 253 251 251 254 251 248 250 253 254 254 258 262 263 262 262 260 259 259 260 259
252 251 256 254 255 253 251 248 250 247 246 246 246 249 250 248 247 245 245 245 246 247 249 250 252 255 254 257 255 252 249 246 243 249 252 253 253 250 249 251 253 254 254 255 257 258 262 260 262 262 263 262 262 264
249 251 252 250 251 249 249 247 246 243 242 242 241 247 244 245 246 246 245 248 247 249 252 254 255 252 253 252 252 254 254 246 244 243 243 245 246 248 251 254 255 254 255 256 257 257 257 260 261 262 262 263 264 266
249 247 252 252 251 248 244 244 242 244 246 248 246 242 244 246 246 247 249 249 251 251 251 252 252 248 251 250 248 244 248 246 247 247 247 249 251 254 256 257 257 256 256 257 257 256 259 261 261 261 261 263 263 264
244 245 245 246 247 248 245 246 247 248 247 246 246 243 244 246 247 247 250 249 248 248 249 250 251 251 250 248 246 245 246 244 246 253 255 258 259 261 262 260 258 256 257 256 258 258 259 260 260 261 263 264 265 264
Wind_Speed
26 26 26 27 26 26 26 25 24 23 22 22 17 18 17 16 17 7 3 8 6 4 8 10 6 5 3 3 5 5 7 5 5 6 3 4 1 5 4 3 6 3 4 2 2 4 3 12 3 6 2 3 3 4
28 27 27 27 27 27 26 27 26 25 24 23 21 19 18 17 18 11 4 4 7 4 7 4 8 15 16 14 7 3 3 2 3 3 2 2 4 4 1 4 2 2 1 3 2 1 3 1 4 1 2 4 4 5
26 26 27 28 28 28 27 28 27 26 27 25 23 21 21 18 18 12 4 4 2 2 6 3 8 6 4 7 9 3 2 4 1 2 2 3 4 2 2 4 3 2 1 1 2 1 2 3 2 2 2 4 5 4
26 27 27 27 27 28 29 27 30 27 26 26 25 24 22 18 18 14 4 4 4 2 3 8 1 4 3 7 8 8 1 2 2 1 3 3 3 3 3 2 3 3 2 0 1 2 3 3 4 5 6 3 4 4
27 27 28 29 28 28 28 29 27 27 28 26 26 24 22 18 17 9 3 6 5 5 4 5 3 3 4 2 7 5 3 2 1 1 2 4 4 4 1 2 4 4 4 3 3 2 0 0 1 3 4 5 5 5
29 28 29 29 28 29 30 30 28 27 24 31 26 25 21 17 12 3 3 2 6 3 1 3 3 2 4 1 3 5 5 4 3 3 4 4 4 3 2 3 2 3 3 3 3 2 2 3 2 1 2 3 4 3
29 28 28 30 29 29 30 30 30 28 27 25 30 26 21 19 5 4 5 4 12 5 2 4 6 2 2 2 0 2 1 3 3 2 3 3 2 2 1 4 3 6 5 5 3 3 3 4 4 1 2 3 3 2
31 31 29 30 31 30 29 29 29 28 27 24 24 23 19 15 8 6 6 14 10 3 2 3 6 4 2 1 0 1 2 2 2 2 2 0 3 1 4 6 4 5 6 3 4 3 2 1 2 2 3 3 1 1
31 31 31 30 33 32 31 29 28 29 28 29 10 15 4 3 4 3 6 16 4 4 4 4 5 5 1 0 1 3 2 1 1 1 2 2 3 6 9 7 9 8 8 7 5 2 2 1 3 3 2 2 1 3
32 34 34 32 33 35 32 31 28 26 29 6 6 2 3 4 10 16 4 3 3 2 2 4 2 3 3 2 2 2 1 2 2 4 2 2 6 5 6 5 7 10 8 9 6 1 1 4 6 4 6 3 3 4
34 34 35 34 33 33 31 30 27 22 9 0 4 3 1 12 3 3 2 3 1 2 3 3 6 4 2 2 3 0 3 1 2 5 3 3 6 5 3 5 2 4 5 4 4 3 2 4 6 4 4 4 5 5
33 34 34 34 34 32 29 30 26 9 3 5 5 5 2 2 2 5 4 2 3 7 2 4 4 3 1 2 4 2 3 2 5 1 4 5 6 5 2 3 2 2 4 4 3 4 3 4 4 4 4 5 5 5
35 34 34 34 34 32 33 31 24 20 12 3 3 4 4 1 5 9 8 5 3 5 5 4 3 2 2 3 4 4 3 6 1 4 5 6 5 5 5 2 1 2 1 1 1 2 3 3 1 4 6 6 5 6
33 34 34 33 34 34 26 22 21 8 2 3 6 5 6 4 7 7 5 5 3 4 5 4 4 3 1 4 2 4 3 3 3 2 6 4 6 5 3 3 3 4 6 4 5 3 3 4 5 5 7 5 3 7
31 33 32 32 32 19 12 20 22 6 3 4 4 7 7 1 2 2 1 3 2 4 4 4 4 3 2 4 2 3 5 4 6 6 5 5 5 3 4 5 6 5 6 5 3 3 5 4 4 6 4 3 4 6
30 29 13 13 12 17 15 13 4 3 2 3 4 4 0 2 2 0 2 3 3 4 3 4 4 4 1 4 3 7 6 6 5 4 4 3 4 4 5 6 6 5 5 5 5 4 3 3 4 5 6 6 5 5
26 3 15 21 18 14 17 4 3 4 6 5 3 1 2 1 3 3 4 4 5 3 3 4 5 7 3 3 3 5 6 5 4 4 2 4 5 5 4 4 6 7 5 5 3 4 4 1 1 3 7 4 5 6
7 9 24 23 14 5 3 2 1 3 3 2 4 3 3 1 4 1 0 3 4 3 4 5 6 3 6 6 5 5 4 4 4 4 4 3 4 4 4 6 4 4 4 4 4 2 1 1 3 4 5 4 6 6
12 12 20 22 11 3 2 2 2 2 1 2 2 2 3 3 2 2 2 2 2 2 6 3 5 4 5 4 4 3 3 3 3 4 4 3 2 3 3 3 4 4 5 3 3 3 3 5 5 3 3 2 4 6
21 21 18 16 6 1 2 2 1 2 2 3 3 3 3 3 2 2 2 2 2 2 2 2 4 4 4 4 3 3 2 1 1 4 4 2 0 2 4 4 3 2 1 1 1 1 2 3 1 0 2 3 3 8
13 8 14 6 2 2 2 2 2 2 2 4 2 2 3 1 3 1 2 2 3 1 1 3 3 3 2 2 2 1 2 2 3 3 2 3 1 1 1 1 1 2 1 1 1 3 1 2 3 2 2 5 5 7
4 8 0 4 3 2 3 1 1 1 3 2 2 2 3 2 2 2 2 3 2 1 1 1 2 1 3 2 3 1 3 3 5 2 1 1 2 1 2 2 2 1 1 2 3 2 3 3 3 3 3 6 6 7
7 5 3 3 4 3 1 1 1 4 4 2 1 4 3 2 1 2 1 1 1 1 1 1 3 2 3 4 3 3 2 4 2 2 2 2 2 2 0 1 1 3 1 2 1 2 3 5 5 5 5 6 6 6
7 3 2 2 3 2 0 2 1 2 3 2 3 4 2 1 2 2 1 2 2 3 3 5 2 3 2 3 3 3 4 3 2 1 2 2 2 1 2 1 1 1 1 2 1 2 3 4 6 4 5 6 6 6
4 3 1 3 1 4 4 2 1 3 4 2 3 2 2 1 2 1 2 3 3 3 3 4 2 3 2 3 3 3 3 4 3 3 3 3 1 2 2 2 1 2 1 3 4 3 5 4 5 6 6 6 7 8
3 2 1 2 1 4 4 4 3 5 4 4 3 1 1 3 3 2 2 2 2 2 2 2 2 3 3 1 2 3 5 4 3 1 2 1 1 2 1 4 3 3 1 1 1 4 6 5 6 8 7 7 7 7
4 2 3 3 2 3 4 2 1 3 4 4 4 3 3 4 1 2 1 1 1 2 3 2 2 1 2 3 2 2 2 3 1 2 2 1 0 2 2 3 2 4 2 3 4 4 5 6 6 6 6 6 5 4
3 3 5 2 3 2 5 4 3 3 2 1 3 3 5 5 3 2 2 2 3 4 5 3 3 3 3 3 3 4 3 3 2 2 2 1 3 0 2 2 3 7 5 5 5 4 5 6 5 6 6 5 6 3
2 3 0 4 4 6 5 4 2 2 2 2 5 3 2 0 1 2 3 3 3 3 3 3 3 1 1 1 1 2 2 3 2 3 3 3 4 3 4 2 3 3 4 6 9 7 7 3 3 3 4 3 4 4
2 2 5 5 6 5 3 2 1 1 1 1 2 4 3 2 1 1 3 3 3 2 2 3 3 3 2 2 2 3 3 3 2 3 4 0 3 4 5 5 6 5 5 5 6 6 7 4 4 4 4 4 3 4
0 2 6 5 4 1 1 1 1 1 2 2 1 5 3 2 3 2 2 3 3 3 2 3 4 5 4 4 3 3 3 2 2 2 2 3 4 4 4 5 4 4 5 5 4 4 4 4 5 6 8 8 9 9
4 5 6 5 1 1 2 2 0 3 4 5 4 2 3 4 4 4 5 5 4 5 6 5 4 3 3 2 2 2 6 6 5 4 6 4 4 5 5 4 4 3 4 5 4 4 5 6 6 6 7 9 10 11
4 3 5 5 4 3 3 4 6 3 5 4 4 0 1 3 2 3 2 1 1 1 3 3 3 3 4 4 3 4 5 4 8 9 9 9 9 8 5 2 3 3 4 4 5 5 7 8 7 8 10 12 12 11
Wind_Direction
291 290 291 293 291 287 281 280 275 277 272 275 238 250 255 262 271 271 226 200 181 222 264 211 219 195 259 216 272 295 344 333 2 30 75 283 320 279 327 300 326 353 318 343 11 55 329 346 347 58 305 298 291 304
288 289 294 294 291 294 292 285 276 268 263 262 236 239 245 253 263 262 244 204 206 221 248 217 218 218 216 232 249 229 227 173 231 48 344 4 322 326 277 301 313 29 356 321 348 234 123 70 125 297 309 279 303 320
311 306 307 303 300 295 296 292 283 276 263 259 238 231 236 245 255 250 192 185 158 309 289 3 246 284 198 199 195 238 285 212 220 179 210 246 260 243 290 273 290 231 346 282 210 11 85 69 79 42 296 308 328 350
310 309 309 310 311 312 304 305 299 281 281 257 246 225 228 237 248 248 176 192 127 155 236 278 306 247 286 176 182 221 172 166 177 168 216 229 227 226 249 288 230 204 6 238 252 162 127 139 55 0 343 340 353 1
308 310 309 306 307 309 304 309 297 302 291 273 250 220 219 232 246 255 206 186 197 154 214 275 290 270 5 257 211 190 208 239 186 242 194 232 235 244 326 14 252 184 188 166 228 132 180 356 30 357 337 348 3 6
301 302 304 305 307 306 302 308 304 304 307 322 249 214 206 221 235 90 254 259 182 114 274 298 266 337 355 23 181 203 207 210 206 196 226 251 251 259 203 230 230 163 161 156 180 143 235 295 196 30 305 329 355 12
301 305 305 302 303 302 304 304 307 301 303 288 307 203 197 209 139 180 185 176 149 121 182 281 296 281 149 97 63 199 212 213 198 223 231 242 279 308 139 216 201 178 166 155 141 148 219 205 206 318 285 297 337 314
303 303 303 303 303 301 301 299 303 303 302 298 306 199 187 200 153 200 169 158 136 117 171 208 263 348 148 233 168 2 190 16 343 232 327 290 319 55 254 228 158 148 143 160 195 204 307 83 47 354 345 354 23 323
301 306 304 303 302 302 298 297 298 299 303 304 214 165 150 133 160 180 162 180 143 165 188 160 172 251 5 296 53 17 14 241 295 189 250 77 294 224 224 176 176 178 183 188 143 78 24 207 269 281 293 295 216 285
303 301 302 301 298 296 301 293 293 297 294 204 129 158 172 198 140 120 116 142 183 204 228 199 99 241 105 9 330 65 2 184 218 255 19 132 257 269 240 202 164 174 172 138 121 236 222 270 217 221 221 222 223 248
300 300 300 299 296 296 295 292 293 291 253 304 138 160 103 126 89 102 155 153 197 256 196 212 185 172 294 128 204 122 180 264 58 258 127 300 279 256 180 162 149 128 151 167 133 133 164 170 172 204 269 243 238 252
298 298 297 296 295 292 287 290 291 280 228 163 110 103 107 118 116 136 186 325 198 218 199 164 189 165 130 110 99 303 140 47 239 200 69 289 260 303 293 224 189 138 148 171 182 192 202 207 202 207 243 251 241 238
296 295 297 294 292 294 289 283 289 271 159 117 156 140 157 204 154 171 194 224 216 193 184 162 123 117 84 61 70 88 105 225 60 53 228 232 273 280 230 307 319 355 18 167 219 223 229 240 214 199 256 244 251 273
294 293 289 291 294 294 280 278 287 235 190 170 153 171 194 183 225 189 182 165 191 117 139 114 97 133 170 72 128 108 244 54 39 9 240 249 244 265 242 187 150 225 209 220 230 226 246 243 262 253 240 244 253 279
300 295 294 297 286 287 310 322 286 190 201 164 137 189 200 205 40 131 133 104 163 136 127 101 63 97 9 89 54 92 24 275 204 229 238 241 243 246 228 194 206 219 192 216 208 213 240 245 254 285 273 267 229 267
311 307 282 284 327 333 336 332 268 135 159 142 112 119 238 90 205 249 185 136 180 141 118 62 110 71 258 126 96 219 126 225 246 224 243 275 264 239 238 205 197 184 189 204 203 210 233 242 252 280 299 273 258 239
314 252 319 325 333 347 356 302 177 174 184 154 180 46 128 84 156 172 156 166 157 134 151 123 110 196 98 62 280 193 206 223 226 264 242 228 245 255 241 222 185 176 190 206 214 212 234 233 353 343 317 281 279 276
296 312 313 319 330 332 345 15 242 174 167 143 139 194 128 12 102 122 139 163 139 135 144 183 125 118 172 172 258 237 236 259 235 250 271 270 253 257 213 207 182 195 203 212 213 244 200 322 313 271 265 287 314 291
286 286 304 315 345 335 344 304 357 140 206 156 105 59 67 102 74 41 98 98 79 109 115 58 97 177 219 212 206 254 253 223 264 289 266 253 249 238 228 221 153 173 210 200 181 232 232 220 239 266 296 357 291 297
290 294 303 313 21 279 250 266 98 142 159 177 85 75 65 67 68 80 84 92 107 112 84 131 205 210 181 223 196 211 239 222 100 328 304 332 82 161 211 213 191 153 150 320 308 239 315 310 315 7 264 261 295 301
292 268 282 315 59 63 46 348 44 3 144 76 112 63 82 80 71 88 82 325 70 136 225 207 217 256 261 263 270 231 288 164 213 200 258 313 39 306 269 242 92 76 112 55 353 288 249 260 275 284 292 282 256 264
236 285 219 135 113 75 72 43 81 289 59 131 79 67 85 89 106 68 309 64 200 277 29 191 243 281 348 6 297 253 259 288 264 263 242 254 299 280 261 219 129 152 189 220 205 266 298 275 296 285 278 295 294 285
256 226 186 139 98 72 184 295 87 346 93 113 150 87 50 56 17 297 72 230 276 15 318 302 297 258 239 299 332 340 321 330 333 352 345 333 2 359 308 158 51 117 57 315 121 265 288 305 296 293 299 299 295 300
34 45 89 86 92 159 19 44 23 97 93 62 78 94 90 81 321 50 195 285 271 315 8 339 333 329 355 14 24 321 318 304 305 92 38 30 31 16 15 281 261 333 60 257 296 328 293 299 312 316 307 305 314 316
187 346 67 90 39 116 97 70 0 85 90 54 103 115 135 345 97 104 208 286 349 348 334 327 4 22 72 289 299 295 315 15 2 30 24 28 20 339 342 329 15 248 221 22 345 318 325 329 325 316 316 318 324 326
112 335 144 182 267 114 175 115 152 130 122 92 66 98 76 104 80 189 242 286 285 277 315 353 347 342 355 24 306 341 335 349 313 71 333 334 183 137 97 51 15 321 196 203 297 322 330 325 316 322 322 324 324 324
123 239 282 223 134 117 87 72 117 100 99 135 158 146 115 82 176 258 320 333 282 256 251 246 258 272 275 312 303 336 334 352 31 183 278 12 324 221 121 97 354 267 264 264 274 269 300 307 305 310 310 313 311 301
153 153 129 236 76 322 107 76 72 75 98 8 99 71 120 160 182 314 246 281 243 296 282 255 228 237 266 295 309 321 323 325 296 300 311 348 265 0 42 275 266 291 294 280 278 265 248 257 274 291 296 303 307 302
63 332 76 69 82 51 38 41 88 60 15 98 110 123 147 47 237 304 300 303 296 305 6 8 350 285 281 341 21 20 346 358 52 52 47 352 342 326 0 317 318 333 320 314 313 325 298 287 282 279 296 287 292 293
2 335 86 49 53 43 348 348 35 325 354 70 110 102 83 28 264 235 299 334 11 339 287 279 287 322 349 348 334 343 43 41 46 106 125 299 272 303 320 332 334 326 321 313 317 332 347 359 352 9 27 23 1 29
28 69 78 53 80 274 264 335 315 17 34 55 338 88 140 194 312 299 322 331 287 307 7 18 43 19 16 8 12 359 5 337 322 286 253 269 279 287 304 307 300 309 306 306 334 353 350 23 26 35 42 42 42 61
25 57 115 101 138 268 37 61 9 67 354 50 12 56 27 54 36 325 343 346 14 28 19 15 23 344 332 338 330 254 248 277 304 317 312 306 300 297 296 293 307 309 319 324 15 16 31 46 47 50 54 61 57 58
62 53 59 89 42 20 325 68 26 39 35 40 14 91 96 116 120 275 306 78 78 324 328 317 307 307 323 327 299 284 309 290 287 298 309 302 306 309 311 304 313 347 348 342 39 53 46 53 58 57 61 69 67 65